ALT15 KAUS-KEFD

Flight info

Callsign ALT15
Flight time N/A
Altitude 17000
Route LDRET
Aircraft E190/M-SDE3GILORVW/S

Departure

Time 2026-05-01 15:19
Airport Austin Bergstrom International Airport (KAUS)

Arrival

Time N/A
Airport Ellington Airport (KEFD)
Time Latitude Longitude Altitude Speed Heading
2026-05-01 15:02 30.20139 -97.66721 500 ft 0 kts
2026-05-01 15:05 30.20132 -97.66722 499 ft 2 kts
2026-05-01 15:05 30.20117 -97.66724 499 ft 2 kts
2026-05-01 15:06 30.20103 -97.66726 499 ft 0 kts
2026-05-01 15:06 30.20093 -97.66727 499 ft 2 kts 338°
2026-05-01 15:06 30.20083 -97.66715 499 ft 2 kts 287°
2026-05-01 15:06 30.20083 -97.66698 499 ft 2 kts 237°
2026-05-01 15:07 30.20094 -97.66688 499 ft 0 kts 194°
2026-05-01 15:07 30.20100 -97.66687 499 ft 1 kts 186°
2026-05-01 15:07 30.20102 -97.66687 499 ft 0 kts 188°
2026-05-01 15:10 30.20067 -97.66691 498 ft 6 kts 182°
2026-05-01 15:10 30.20015 -97.66689 497 ft 8 kts 177°
2026-05-01 15:11 30.19947 -97.66685 496 ft 10 kts 176°
2026-05-01 15:11 30.19842 -97.66631 494 ft 7 kts 104°
2026-05-01 15:11 30.19835 -97.66571 494 ft 8 kts 90°
2026-05-01 15:12 30.19835 -97.66500 494 ft 9 kts 86°
2026-05-01 15:12 30.19842 -97.66302 491 ft 8 kts 89°
2026-05-01 15:12 30.19842 -97.66293 491 ft 1 kts 92°
2026-05-01 15:13 30.19848 -97.66072 488 ft 18 kts 86°
2026-05-01 15:14 30.19763 -97.65983 487 ft 11 kts 178°
2026-05-01 15:14 30.19665 -97.65983 487 ft 16 kts 179°
2026-05-01 15:14 30.19341 -97.65971 483 ft 29 kts 179°
2026-05-01 15:15 30.18937 -97.65964 481 ft 27 kts 176°
2026-05-01 15:15 30.18560 -97.65951 483 ft 25 kts 180°
2026-05-01 15:16 30.18209 -97.65943 483 ft 25 kts 177°
2026-05-01 15:16 30.17938 -97.65928 478 ft 9 kts 144°
2026-05-01 15:17 30.17927 -97.65758 474 ft 10 kts 82°
2026-05-01 15:18 30.17969 -97.65727 475 ft 0 kts 360°
2026-05-01 15:18 30.18010 -97.65728 475 ft 30 kts 358°
2026-05-01 15:19 30.20369 -97.65832 1011 ft 154 kts 358°
2026-05-01 15:19 30.22581 -97.66069 2163 ft 173 kts
2026-05-01 15:19 30.23856 -97.66033 2673 ft 193 kts 11°
2026-05-01 15:20 30.25323 -97.63734 3986 ft 216 kts 96°
2026-05-01 15:20 30.24694 -97.62116 4693 ft 230 kts 115°
2026-05-01 15:20 30.23905 -97.60476 5339 ft 244 kts 115°
2026-05-01 15:21 30.23070 -97.58661 5857 ft 265 kts 115°
2026-05-01 15:21 30.22197 -97.56726 6680 ft 274 kts 115°
2026-05-01 15:21 30.21338 -97.54797 7627 ft 275 kts 116°
2026-05-01 15:21 30.20475 -97.52849 8552 ft 275 kts 117°
2026-05-01 15:22 30.18728 -97.48893 10127 ft 283 kts 119°
2026-05-01 15:22 30.17814 -97.46824 10758 ft 292 kts 120°
2026-05-01 15:22 30.16871 -97.44692 11261 ft 306 kts 120°
2026-05-01 15:23 30.15891 -97.42473 11753 ft 319 kts 120°
2026-05-01 15:23 30.14867 -97.40157 12269 ft 330 kts 121°
2026-05-01 15:23 30.13807 -97.37759 12815 ft 339 kts 122°
2026-05-01 15:23 30.12732 -97.35330 13395 ft 346 kts 122°
2026-05-01 15:24 30.11624 -97.32828 14021 ft 352 kts 122°
2026-05-01 15:24 30.10505 -97.30299 14681 ft 354 kts 122°
2026-05-01 15:24 30.09388 -97.27782 15211 ft 361 kts 124°
2026-05-01 15:24 30.08239 -97.25187 15716 ft 367 kts 125°
2026-05-01 15:25 30.07063 -97.22543 16316 ft 372 kts 126°
2026-05-01 15:25 30.05893 -97.19910 16826 ft 370 kts 125°
2026-05-01 15:25 30.04700 -97.17231 16923 ft 384 kts 125°
2026-05-01 15:25 30.03445 -97.14415 16977 ft 403 kts 125°
2026-05-01 15:26 30.02173 -97.11550 16962 ft 403 kts 124°
2026-05-01 15:26 30.00888 -97.08664 16945 ft 410 kts 125°
2026-05-01 15:26 29.99593 -97.05758 16929 ft 408 kts 125°
2026-05-01 15:26 29.98294 -97.02843 16944 ft 405 kts 124°
2026-05-01 15:27 29.97015 -96.99982 16948 ft 408 kts 124°
2026-05-01 15:27 29.95713 -96.97066 16940 ft 407 kts 124°
2026-05-01 15:27 29.94411 -96.94153 16911 ft 409 kts 126°
2026-05-01 15:28 29.91820 -96.88368 16930 ft 408 kts 125°
2026-05-01 15:28 29.90516 -96.85454 16949 ft 404 kts 126°
2026-05-01 15:28 29.89234 -96.82595 16935 ft 403 kts 124°
2026-05-01 15:29 29.86634 -96.76811 16945 ft 409 kts 124°
2026-05-01 15:29 29.85325 -96.73904 16942 ft 409 kts 125°
2026-05-01 15:29 29.82728 -96.68127 16940 ft 405 kts 125°
2026-05-01 15:30 29.80129 -96.62363 16926 ft 409 kts 125°
2026-05-01 15:31 29.74906 -96.50800 16928 ft 409 kts 125°
2026-05-01 15:31 29.72305 -96.45055 16911 ft 409 kts 124°
2026-05-01 15:32 29.69681 -96.39266 16945 ft 409 kts 125°
2026-05-01 15:32 29.67092 -96.33559 16917 ft 396 kts 125°
2026-05-01 15:33 29.64778 -96.24316 16783 ft 408 kts 109°
2026-05-01 15:34 29.62899 -96.14887 15462 ft 395 kts 108°